Location: *
(48.7358°N, 0.3111°E)
Time: 14:57:12
(UTC+00:00)

Cosmos 407 Rocket - Pass Details

Date: 22 October 2019
Orbit: 744 x 786 km, 74.1° (Epoch: 17 November)

Event Time Altitude Azimuth Distance (km) Brightness Sun altitude
Exits shadow 03:23:31 44° 111° (ESE) 1,029 4.3 -30.9°
Maximum altitude 03:23:42 44° 105° (ESE) 1,026 4.4 -30.9°
Drops below altitude 10° 03:28:33 10° 34° (NE) 2,268 6.5 -30.1°
Sets 03:30:59 0° 28° (NNE) 3,197 7.3 -29.7°
